This is the latest recevied weather packets stored in our database for station/object OE-11344. If no packets are shown the sender has not sent any weather packets the latest 10 day(s).
| Time | Temp. | Humidity | Pressure | Rain* | Wind** | Luminosity | Snow |
|---|---|---|---|---|---|---|---|
| 1787688685 | 10.56° C | 95% | 853 hPa | 0 mm | - | 0 W/m² | - |
| 1787688311 | 10.56° C | 95% | 853 hPa | 0 mm | - | 0 W/m² | - |
| 1787687712 | 10.56° C | 95% | 852.8 hPa | 0 mm | - | 0 W/m² | - |
| 1787686885 | 10.56° C | 95% | 852.7 hPa | 0 mm | - | 0 W/m² | - |
| 1787686512 | 11.11° C | 95% | 852.7 hPa | 0 mm | - | 0 W/m² | - |
| 1787685912 | 11.11° C | 95% | 852.6 hPa | 0 mm | - | 0 W/m² | - |
| 1787685085 | 11.11° C | 95% | 852.6 hPa | 0 mm | - | 0 W/m² | - |
| 1787684712 | 11.11° C | 95% | 852.5 hPa | 0 mm | - | 0 W/m² | - |
| 1787684112 | 11.11° C | 95% | 852.4 hPa | 0 mm | - | 0 W/m² | - |
| 1787683285 | 11.11° C | 95% | 852.3 hPa | 0 mm | - | 0 W/m² | - |
| 1787682312 | 11.67° C | 95% | 852.2 hPa | 0.25 mm | - | 0 W/m² | - |
| 1787681485 | 11.67° C | 95% | 852.1 hPa | 0.25 mm | - | 0 W/m² | - |
| 1787681112 | 11.67° C | 94% | 852 hPa | 1.02 mm | - | 6 W/m² | - |
| 1787680512 | 11.67° C | 93% | 852 hPa | 1.78 mm | - | 6 W/m² | - |
| 1787679685 | 11.11° C | 95% | 851.9 hPa | 3.81 mm | - | 12 W/m² | - |
| 1787679312 | 11.67° C | 95% | 852 hPa | 6.1 mm | - | 12 W/m² | - |
| 1787678712 | 11.11° C | 95% | 851.9 hPa | 7.87 mm | - | 6 W/m² | - |
| 1787677885 | 11.67° C | 96% | 851.6 hPa | 8.64 mm | - | 12 W/m² | - |
| 1787677512 | 11.67° C | 97% | 851.5 hPa | 9.14 mm | - | 12 W/m² | - |
| 1787676911 | 11.67° C | 97% | 851.4 hPa | 8.64 mm | - | 6 W/m² | - |
| 1787676085 | 11.67° C | 97% | 851.2 hPa | 7.62 mm | - | 6 W/m² | - |
| 1787675712 | 12.22° C | 96% | 851 hPa | 5.84 mm | - | 18 W/m² | - |
| 1787675111 | 12.22° C | 96% | 850.9 hPa | 3.3 mm | - | 12 W/m² | - |
| 1787674284 | 12.22° C | 96% | 850.7 hPa | 1.52 mm | - | 18 W/m² | - |
| 1787673912 | 12.22° C | 96% | 850.7 hPa | 0.76 mm | - | 12 W/m² | - |
* Rain latest hour (hover to see other rain measurements)
** Current wind speed in m/s (hover to see current wind gust speed)